This is the latest recevied weather packets stored in our database for station/object NK7I. If no packets are shown the sender has not sent any weather packets the latest 1 day(s).
| Time | Temp. | Humidity | Pressure | Rain* | Wind** | Luminosity | Snow |
|---|---|---|---|---|---|---|---|
| 1778031383 | 23.33° C | 28% | 1009.2 hPa | 0 mm | 0.45 m/s, 242° | 172 W/m² | - |
| 1778031083 | 23.33° C | 28% | 1009.3 hPa | 0 mm | 0 m/s | 206 W/m² | - |
| 1778030783 | 23.33° C | 26% | 1009.3 hPa | 0 mm | 0 m/s | 229 W/m² | - |
| 1778030483 | 23.33° C | 25% | 1009.3 hPa | 0 mm | 0 m/s | 255 W/m² | - |
| 1778030184 | 23.33° C | 25% | 1009.3 hPa | 0 mm | 0 m/s | 262 W/m² | - |
| 1778029883 | 23.33° C | 26% | 1009.3 hPa | 0 mm | 0.45 m/s, 242° | 246 W/m² | - |
| 1778029583 | 23.33° C | 31% | 1009.4 hPa | 0 mm | 0 m/s | 323 W/m² | - |
| 1778029284 | 23.89° C | 28% | 1009.3 hPa | 0 mm | 0 m/s | 348 W/m² | - |
| 1778028983 | 23.89° C | 25% | 1009.5 hPa | 0 mm | 0.89 m/s, 249° | 373 W/m² | - |
| 1778028682 | 23.89° C | 28% | 1009.3 hPa | 0 mm | 0 m/s | 394 W/m² | - |
| 1778028383 | 23.89° C | 29% | 1009.5 hPa | 0 mm | 0.45 m/s, 247° | 417 W/m² | - |
| 1778028083 | 23.89° C | 26% | 1009.5 hPa | 0 mm | 0.89 m/s, 243° | 436 W/m² | - |
| 1778027783 | 23.89° C | 32% | 1009.5 hPa | 0 mm | 0 m/s | 459 W/m² | - |
| 1778027483 | 23.33° C | 31% | 1009.6 hPa | 0 mm | 0 m/s | 482 W/m² | - |
| 1778027183 | 23.89° C | 28% | 1009.7 hPa | 0 mm | 0.45 m/s, 241° | 506 W/m² | - |
| 1778026883 | 23.89° C | 27% | 1009.7 hPa | 0 mm | 0.45 m/s, 240° | 527 W/m² | - |
| 1778026583 | 23.89° C | 30% | 1009.8 hPa | 0 mm | 0.89 m/s, 238° | 550 W/m² | - |
| 1778026285 | 23.33° C | 28% | 1009.9 hPa | 0 mm | 0.45 m/s, 236° | 573 W/m² | - |
| 1778025983 | 23.33° C | 25% | 1010 hPa | 0 mm | 0.45 m/s, 234° | 591 W/m² | - |
| 1778025683 | 23.33° C | 29% | 1009.9 hPa | 0 mm | 0.45 m/s, 240° | 612 W/m² | - |
| 1778025383 | 23.33° C | 31% | 1010.1 hPa | 0 mm | 0 m/s | 633 W/m² | - |
| 1778025083 | 23.33° C | 28% | 1010.1 hPa | 0 mm | 0.89 m/s, 258° | 656 W/m² | - |
| 1778024783 | 23.33° C | 29% | 1010.2 hPa | 0 mm | 0.45 m/s, 97° | 679 W/m² | - |
| 1778024483 | 23.33° C | 31% | 1010.2 hPa | 0 mm | 0.45 m/s, 178° | 698 W/m² | - |
| 1778024183 | 23.33° C | 26% | 1010.3 hPa | 0 mm | 0.89 m/s, 106° | 721 W/m² | - |
* Rain latest hour (hover to see other rain measurements)
** Current wind speed in m/s (hover to see current wind gust speed)